Fort Collins, CO

7:22 AM MST on November 20, 2019 (GMT -0700)
Fort Collins-Loveland Municipal

Weather History for KFNL - September, 2019

Change the Weather History Date:

Sunday, September 22, 2019

  Actual Average Record
Temperature  
Mean Temperature 56 °F -  
Max Temperature 73 °F - 88 °F (2018)
Min Temperature 38 °F - 34 °F (2016)
Degree Days  
Heating Degree Days 9    
Month to date heating degree days 17  
Cooling Degree Days 0    
Month to date cooling degree days 118  
Growing Degree Days 8 (Base 50)    
Moisture  
Dew Point 38 °F    
Average Humidity 57    
Maximum Humidity 89    
Minimum Humidity 25    
Precipitation  
Precipitation 0.00 in - 0.89 in (1997)
Snow  
Snow 0.00 in - - ()
Snow Depth 0.00 in    
Sea Level Pressure  
Sea Level Pressure 30.00 in    
Wind  
Wind Speed 4 mph (SE)    
Max Wind Speed 12 mph    
Max Gust Speed 16 mph    
Visibility 10 miles    
Events      
T = Trace of Precipitation, MM = Missing Value Source: NWS Daily Summary

Daily Weather History Graph

Daily Weather History Graph

Search for Another Location

Airport or City:

Astronomy

Sep. 22, 2019 Rise Set
Actual Time 6:47 AM MDT 6:57 PM MDT
Civil Twilight 6:20 AM MDT 7:24 PM MDT
Nautical Twilight 5:48 AM MDT 7:56 PM MDT
Astronomical Twilight 5:15 AM MDT 8:28 PM MDT
Moon No Moon Rise 2:56 PM MDT (9/22)
Length of Visible Light 13h 04m
Length of Day
12h 10m
Last Quarter, 43% of the Moon is Illuminated
Sep 22
Last Quarter
Sep 28
New
Oct 5
First Quarter
Oct 13
Full
Oct 21
Last Quarter

Hourly Weather History & Observations

Time (MDT) Temp. Windchill Dew Point Humidity Pressure Visibility Wind Dir Wind Speed Gust Speed Precip Events Conditions
12:56 AM 50.0 °F - 42.1 °F 74% 29.96 in 10.0 mi Calm Calm - N/A   Clear
1:56 AM 48.0 °F - 42.1 °F 80% 29.96 in 10.0 mi Calm Calm - N/A   Clear
2:56 AM 46.0 °F 43.1 °F 41.0 °F 83% 29.96 in 10.0 mi South 5.8 mph - N/A   Partly Cloudy
3:56 AM 45.0 °F 42.6 °F 39.9 °F 82% 29.97 in 10.0 mi NE 4.6 mph - N/A   Clear
4:56 AM 43.0 °F 39.5 °F 39.9 °F 89% 30.01 in 10.0 mi North 5.8 mph - N/A   Mostly Cloudy
5:56 AM 42.1 °F - 39.0 °F 89% 30.02 in 10.0 mi Calm Calm - N/A   Clear
6:56 AM 44.1 °F - 39.9 °F 85% 30.03 in 10.0 mi Calm Calm - N/A   Partly Cloudy
7:56 AM 48.0 °F - 39.0 °F 71% 30.04 in 10.0 mi South 4.6 mph - N/A   Clear
8:56 AM 54.0 °F - 37.0 °F 53% 30.04 in 10.0 mi Calm Calm - N/A   Clear
9:56 AM 57.0 °F - 39.9 °F 53% 30.04 in 10.0 mi Variable 4.6 mph - N/A   Clear
10:56 AM 63.0 °F - 39.9 °F 43% 30.01 in 10.0 mi ESE 8.1 mph - N/A   Clear
11:56 AM 66.9 °F - 37.9 °F 34% 29.99 in 10.0 mi SE 8.1 mph - N/A   Clear
12:56 PM 69.1 °F - 37.0 °F 31% 29.96 in 10.0 mi SE 9.2 mph - N/A   Clear
1:56 PM 71.1 °F - 34.0 °F 26% 29.95 in 10.0 mi Variable 6.9 mph - N/A   Clear
2:56 PM 72.0 °F - 35.1 °F 26% 29.94 in 10.0 mi SSE 10.4 mph 16.1 mph N/A   Clear
4:56 PM 73.0 °F - 35.1 °F 25% 29.95 in 10.0 mi SE 10.4 mph - N/A   Clear
5:56 PM 72.0 °F - 35.1 °F 26% 29.97 in 10.0 mi SE 11.5 mph - N/A   Clear
6:56 PM 66.0 °F - 34.0 °F 30% 30.00 in 10.0 mi SSE 5.8 mph - N/A   Clear
7:56 PM 63.0 °F - 34.0 °F 34% 30.01 in 10.0 mi SE 5.8 mph - N/A   Clear
8:56 PM 59.0 °F - 39.9 °F 49% 30.03 in 10.0 mi WSW 6.9 mph - N/A   Clear
9:56 PM 57.9 °F - 39.9 °F 51% 30.04 in 10.0 mi Calm Calm - N/A   Clear
10:56 PM 59.0 °F - 39.0 °F 48% 30.01 in 10.0 mi WSW 3.5 mph - N/A   Clear
11:56 PM 54.0 °F - 39.0 °F 57% 30.00 in 10.0 mi NNE 6.9 mph - N/A   Clear